Regional Weather Roundup
Issued by NWS

Home | Current Version | Previous Version | Graphics & Text | Print | Product List | Glossary On
Versions: 1 2 3 4 5 6 7 8 9 10 11 12 13 14 15 16 17 18 19 20 21 22 23 24 25 26 27 28 29 30 31 32 33 34 35 36 37 38 39 40 41 42 43 44 45 46 47 48 49 50
000
ASUS43 KLOT 200409
RWRIL

ILLINOIS REGIONAL WEATHER ROUNDUP
NATIONAL WEATHER SERVICE CHICAGO/ROMEOVILLE IL
1100 PM CDT WED JUL 19 2017

NOTE: "FAIR" INDICATES FEW OR NO CLOUDS BELOW 12,000 FEET WITH NO
SIGNIFICANT WEATHER AND/OR OBSTRUCTIONS TO VISIBILITY.

* THESE STATIONS ARE NOT UNDER NWS QUALITY CONTROL. THEY ALSO MAY NOT
  REPORT WEATHER SUCH AS PRECIPITATION OR FOG.

ILZ001-002-007-009-015-016-024-200500-
NORTHWEST ILLINOIS

CITY           SKY/WX    TMP DP  RH WIND       PRES   REMARKS
MOLINE         PTCLDY    76  67  73 SE8       30.04F
STERLING*      CLOUDY    73  68  84 NE8       30.08S
SAVANNA*       CLOUDY    70  66  88 E9        30.06S
$$

ILZ003-004-008-010-011-017-018-200500-
NORTH CENTRAL ILLINOIS

CITY           SKY/WX    TMP DP  RH WIND       PRES   REMARKS
ROCKFORD       LGT RAIN  72  66  81 NW12G24   30.11S
FREEPORT*      CLOUDY    69  65  85 CALM      30.10F
ROCHELLE*      CLOUDY    68  66  94 W5        30.12R
DE KALB*       LGT RAIN  70  65  84 W18G25    30.10F
PERU*          CLOUDY    71  66  83 SE6       30.08F
$$

ILZ005-006-012>014-019>023-200500-
NORTHEAST ILLINOIS

CITY           SKY/WX    TMP DP  RH WIND       PRES   REMARKS
CHICAGO-OHARE  TSTM      70  67  90 CALM      30.08F FOG
CHICAGO-MIDWAY TSTM      72  67  84 N8        30.07F
AURORA         LGT RAIN  70  67  90 MISG      30.08F
LANSING*       RAIN      70  65  84 N7        30.10R
JOLIET*        LGT RAIN  70  69  96 NE5       30.08F
WAUKEGAN       RAIN      69  69 100 VRB6      30.10R FOG
DUPAGE AIRPORT LGT RAIN  69  68  96 VRB7      30.06F
WHEELING       LGT RAIN  70  70 100 S3        30.12R
MORRIS*        CLOUDY    69  67  94 E3        30.08F
ROMEOVILLE*    LGT RAIN  68  65  90 E5        30.08F
NORTHERLY ISL    N/A     71  66  84 NW6         N/A
$$

LMZ740>746-200500-
SOUTHERN LAKE MICHIGAN

STATION/POSITION SKY/WX   TEMP    WIND        PRES    VSBY  WAVE
                          AIR SEA DIR/SP/G                  HT/PER
                          (F)     (DEG/KT/KT) (MB)    (MI)  (FT/S)
SOUTHERN BUOY              70 71  130/  2/  2 1018.0          1
WILMETTE HARBOR            70 72  230/  6/  8   N/A           1/ 2
HARRISON CRIB              71     280/ 10/ 11   N/A
BURNHAM HARBOR             71                   N/A
CALUMET HARBOR             70     340/  3/  6 1018.9R
BURNS HARBOR               74     330/  4/  5 1019.6R
MICHIGAN CITY              74      10/  1/  1   N/A
MICHIGAN CITY 6N           74 75                N/A           1
ST. JOSEPH                 74 76   40/  2/  2 1017.8          1/ 2
$$

ILZ025>027-034>036-040-047-049-050-058-095>099-200500-
WEST-CENTRAL ILLINOIS

CITY           SKY/WX    TMP DP  RH WIND       PRES   REMARKS
QUINCY         CLEAR     82  75  79 S5        30.06R HX  89
GALESBURG*     MOCLDY    80  74  84 NE15      30.08R HX  84
MACOMB*        CLEAR     76  73  91 S5        30.08R
JACKSONVILLE*  PTCLDY    76  72  86 CALM      30.08R
PITTSFIELD*    PTCLDY    77  74  88 CALM      30.08S
$$

ILZ028>032-037-038-041>044-048-051>054-059>061-200500-
CENTRAL ILLINOIS

CITY           SKY/WX    TMP DP  RH WIND       PRES   REMARKS
PONTIAC        CLOUDY    72  71  96 NE7       30.11F
BLOOMINGTON    MOCLDY    80  74  81 NE9       30.12R HX  85
DECATUR        CLEAR     77  75  93 E3        30.10R
PEORIA         CLOUDY    80  77  90 E5        30.08R HX  87
LACON*         CLOUDY    73  67  83 CALM      30.09R
SPRINGFIELD    CLOUDY    78  75  90 SE3       30.08R HX  81
TAYLORVILLE    PTCLDY    79  75  89 CALM      30.09R HX  82
$$

ILZ033-039-045-046-055>057-062-063-200500-
EAST-CENTRAL ILLINOIS

CITY           SKY/WX    TMP DP  RH WIND       PRES   REMARKS
CHAMPAIGN      CLEAR     76  74  93 SE5       30.11R
RANTOUL*       CLEAR     80  78  94 CALM      30.11R HX  85
MATTOON        CLEAR     78  76  93 S5        30.09R HX  81
PARIS*         CLEAR     73  73  99 CALM      30.11R
$$

ILZ079-100>102-200500-
SOUTHWEST ILLINOIS

CITY           SKY/WX    TMP DP  RH WIND       PRES   REMARKS
ALTON          CLEAR     79  78  96 CALM      30.07R HX  83
BELLEVILLE     PTCLDY    82  76  80 SW3       30.08R HX  89
CAHOKIA*       CLEAR     84  73  69 CALM      30.06R HX  90
SPARTA*        PTCLDY    84  73  71 S6        30.09R HX  90
$$

ILZ064>066-069>071-074>076-080>082-084>086-088>090-092>094-200500-
SOUTH-CENTRAL ILLINOIS

CITY           SKY/WX    TMP DP  RH WIND       PRES   REMARKS
CARBONDALE     CLEAR     78  76  93 S5        30.08R HX  81
CAIRO*         CLEAR     77  74  91 CALM      30.08R
EFFINGHAM*     CLEAR     78  76  93 CALM      30.10R HX  81
MARION         CLEAR     81  79  94 S3        30.09S HX  89
MT. VERNON     CLEAR     75  74  96 CALM      30.09R
CENTRALIA*     CLEAR     79  76  92 CALM      30.08R HX  83
SALEM*         CLEAR     77  74  88 CALM      30.09R
METROPOLIS*    CLEAR     78  75  92 CALM      30.09S
$$

ILZ067-068-072-073-078-083-087-091-200500-
SOUTHEAST ILLINOIS

CITY           SKY/WX    TMP DP  RH WIND       PRES   REMARKS
LAWRENCEVILLE  CLEAR     78  74  87 CALM      30.09R HX  81
FLORA*         CLEAR     81  77  86 CALM      30.09R HX  88
FAIRFIELD*     CLEAR     78  77  98 CALM      30.08R HX  80
HARRISBURG*    CLEAR     78  76  95 CALM      30.08S HX  80
ROBINSON*      CLEAR     73  72  96 CALM      30.10R
CARMI*         CLEAR     77  76  97 CALM      30.07S FOG
$$

ABBREVIATIONS USED IN REMARKS
   TC - TEMPERATURE IN CELSIUS
  WCI - WIND CHILL INDEX
   HX - HEAT INDEX
  VSB - VISIBILITY
$$





USA.gov is the U.S. government's official web portal to all federal, state and local government web resources and services.